Regional Weather Roundup
Issued by NWS Little Rock, AR

Home | Current Version | Previous Version | Text Only | Print | Product List | Glossary Off
Versions: 1 2 3 4 5 6 7 8 9 10 11 12 13 14 15 16 17 18 19 20 21 22 23 24 25 26 27 28 29 30 31 32 33 34 35 36 37 38 39 40 41 42 43 44 45 46 47 48 49 50

000
ASUS44 KLZK 272305
RWRLZK

WEATHER ROUNDUP FOR ARKANSAS
NATIONAL WEATHER SERVICE LITTLE ROCK AR
600 PM CDT MON JUL 27 2015

NOTE: "FAIR" INDICATES FEW OR NO CLOUDS BELOW 12,000 FEET WITH NO
SIGNIFICANT WEATHER AND/OR OBSTRUCTIONS TO VISIBILITY.

ARZ001-003-010-029-280000-
NORTHWEST ARKANSAS

CITY           SKY/WX    TMP DP  RH WIND       PRES   REMARKS
FAYETTEVILLE   SUNNY     91  75  59 S7        29.94F HX 101
FORT SMITH     MOSUNNY   96  72  45 E13       29.86F HX 104
HARRISON       MOSUNNY   88  76  67 SE10      29.96S HX  99
BENTONVILLE    SUNNY     93  72  49 SW7       29.95F HX 100
ROGERS         MOSUNNY   93  76  57 SE9       29.95F HX 105
SILOAM SPGS    SUNNY     93  72  49 S9        29.92F HX 100
HIGHFILL       SUNNY     92  75  57 S8        29.94F HX 103
SPRINGDALE     MOSUNNY   93  72  49 S12       29.96F HX 100
$$

ARZ004-005-016-280000-
NORTH CENTRAL ARKANSAS

CITY           SKY/WX    TMP DP  RH WIND       PRES   REMARKS
BATESVILLE     MOSUNNY   90  75  62 SE5       29.91F HX 100
FLIPPIN        CLOUDY    86  73  66 CALM      29.91F HX  93
MTN HOME       CLOUDY    83  73  72 S5        29.92F HX  89
$$

ARZ040-041-280000-
WEST CENTRAL ARKANSAS

CITY           SKY/WX    TMP DP  RH WIND       PRES   REMARKS
MENA           MOSUNNY   99  70  39 CALM      29.94S HX 105
MOUNT IDA      SUNNY     95  70  44 MISG      29.91F HX 101
$$

ARZ009-017-025-026-028-280000-
NORTHEAST ARKANSAS

CITY           SKY/WX    TMP DP  RH WIND       PRES   REMARKS
JONESBORO      SUNNY     90  76  63 SW13      29.90F HX 101
NEWPORT        SUNNY     93  76  57 VRB7      29.91F HX 105
WALNUT RIDGE   SUNNY     91  73  55 S13       29.89F HX 100
BLYTHEVILLE    SUNNY     92  77  61 S6        29.91F HX 105
$$

ARZ022-023-033-042-044-280000-
CENTRAL ARKANSAS

CITY           SKY/WX    TMP DP  RH WIND       PRES   REMARKS
LITTLE ROCK    MOSUNNY   96  73  47 S8        29.90F HX 105
N LITTLE ROCK  MOSUNNY   96  76  52 SE8       29.90F HX 108
JACKSONVILLE   SUNNY     98  74  45 SE8       29.90F HX 108
SEARCY         SUNNY     94  74  52 SE8       29.92F HX 104
HOT SPRINGS    MOSUNNY   97  70  41 VRB5      29.92S HX 103
RUSSELLVILLE   SUNNY     96  74  48 E3        29.89S HX 107
CLINTON        FAIR      93  79  62 E3        29.91F HX 110
$$

ARZ036-280000-
EAST ARKANSAS

CITY           SKY/WX    TMP DP  RH WIND       PRES   REMARKS
WEST MEMPHIS   SUNNY     92  77  61 S5        29.91F HX 105
$$

ARZ050-053-066-070-073-280000-
SOUTHWEST ARKANSAS

CITY           SKY/WX    TMP DP  RH WIND       PRES   REMARKS
ARKADELPHIA    FAIR      99  74  44 VRB5      29.90F HX 110
CAMDEN         SUNNY     99  72  41 S6        29.89F HX 107
TEXARKANA      SUNNY     97  69  40 S8        29.90S HX 103
EL DORADO      SUNNY     96  71  44 S7        29.90F HX 103
DE QUEEN       MOSUNNY   96  73  47 SE8       29.87F HX 105
$$

ARZ056-057-069-280000-
SOUTHEAST ARKANSAS

CITY           SKY/WX    TMP DP  RH WIND       PRES   REMARKS
PINE BLUFF     MOSUNNY   94  78  60 E8        29.90F HX 110
STUTTGART      SUNNY     97  73  46 SW7       29.91F HX 107
MONTICELLO     SUNNY     97  76  50 E7        29.90F HX 110

$$





USA.gov is the U.S. government's official web portal to all federal, state and local government web resources and services.